| time (UTC) | temp F | wind direction | speed MPH | gust MPH | rain 1hr in | rain 24hr in | rain mn in | humidity % | barometer mb |
| 20260504223058 | 89 | 259 | 3.0 | 12.0 | 0.00 | 0.91 | 0.01 | 82 | 1011.4 |
| 20260504222543 | 89 | 319 | 3.0 | 11.0 | 0.00 | 0.91 | 0.01 | 81 | 1011.5 |
| 20260504222040 | 89 | 101 | 2.0 | 11.0 | 0.00 | 0.91 | 0.01 | 81 | 1011.5 |
| 20260504221559 | 90 | 321 | 1.0 | 10.0 | 0.00 | 0.91 | 0.01 | 81 | 1011.4 |
| 20260504221040 | 90 | 0 | 3.0 | 11.0 | 0.00 | 0.91 | 0.01 | 81 | 1011.5 |
| 20260504220540 | 90 | 42 | 3.0 | 11.0 | 0.00 | 0.91 | 0.01 | 80 | 1011.5 |
| 20260504220052 | 91 | 345 | 4.0 | 11.0 | 0.00 | 0.91 | 0.01 | 78 | 1011.5 |
| 20260504215539 | 91 | 352 | 5.0 | 10.0 | 0.00 | 0.91 | 0.01 | 78 | 1011.6 |
| 20260504215040 | 91 | 303 | 3.0 | 12.0 | 0.00 | 0.91 | 0.01 | 78 | 1011.6 |
| 20260504214600 | 90 | 284 | 4.0 | 12.0 | 0.00 | 0.91 | 0.01 | 79 | 1011.7 |
| 20260504214041 | 90 | 335 | 6.0 | 12.0 | 0.00 | 0.91 | 0.01 | 79 | 1011.8 |
| 20260504213540 | 90 | 313 | 5.0 | 12.0 | 0.00 | 0.91 | 0.01 | 79 | 1011.7 |
| 20260504213104 | 90 | 333 | 5.0 | 10.0 | 0.00 | 0.91 | 0.01 | 79 | 1011.8 |
| 20260504212540 | 90 | 5 | 4.0 | 10.0 | 0.00 | 0.91 | 0.01 | 79 | 1011.7 |
| 20260504212042 | 91 | 348 | 2.0 | 9.0 | 0.00 | 0.91 | 0.01 | 79 | 1011.7 |
| 20260504211550 | 91 | 5 | 3.0 | 8.0 | 0.00 | 0.91 | 0.01 | 78 | 1011.7 |
| 20260504211040 | 91 | 14 | 3.0 | 8.0 | 0.00 | 0.91 | 0.01 | 77 | 1011.7 |
| 20260504210540 | 91 | 5 | 2.0 | 7.0 | 0.00 | 0.91 | 0.01 | 75 | 1011.9 |
| 20260504210052 | 92 | 339 | 3.0 | 6.0 | 0.00 | 0.91 | 0.01 | 74 | 1011.9 |
| 20260504205544 | 91 | 69 | 0.0 | 5.0 | 0.00 | 0.91 | 0.01 | 75 | 1011.9 |
| 20260504205040 | 91 | 317 | 1.0 | 6.0 | 0.00 | 0.91 | 0.01 | 75 | 1012.0 |
| 20260504204559 | 91 | 107 | 0.0 | 6.0 | 0.00 | 0.91 | 0.01 | 75 | 1012.0 |
| 20260504204040 | 91 | 84 | 1.0 | 6.0 | 0.00 | 0.91 | 0.01 | 75 | 1012.2 |
| 20260504203540 | 92 | 112 | 2.0 | 6.0 | 0.00 | 0.91 | 0.01 | 73 | 1012.3 |
| 20260504203052 | 92 | 29 | 0.0 | 5.0 | 0.00 | 0.91 | 0.01 | 75 | 1012.4 |
| 20260504202540 | 92 | 58 | 2.0 | 6.0 | 0.00 | 0.91 | 0.01 | 73 | 1012.4 |
| 20260504202040 | 91 | 330 | 2.0 | 6.0 | 0.00 | 0.91 | 0.01 | 73 | 1012.5 |
| 20260504201553 | 90 | 0 | 1.0 | 6.0 | 0.00 | 0.91 | 0.01 | 75 | 1012.5 |
| 20260504201038 | 90 | 51 | 1.0 | 7.0 | 0.00 | 0.91 | 0.01 | 77 | 1012.4 |
| 20260504200540 | 90 | 190 | 2.0 | 7.0 | 0.00 | 0.91 | 0.01 | 77 | 1012.5 |
| 20260504200050 | 91 | 155 | 2.0 | 8.0 | 0.00 | 0.91 | 0.01 | 76 | 1012.6 |
| 20260504195539 | 90 | 332 | 2.0 | 8.0 | 0.00 | 0.91 | 0.01 | 78 | 1012.6 |
| 20260504195038 | 90 | 306 | 3.0 | 8.0 | 0.00 | 0.91 | 0.01 | 78 | 1012.8 |
| 20260504194551 | 89 | 0 | 2.0 | 5.0 | 0.00 | 0.91 | 0.01 | 78 | 1012.9 |
| 20260504194040 | 88 | 0 | 0.0 | 6.0 | 0.00 | 0.91 | 0.01 | 80 | 1013.0 |
| 20260504193542 | 89 | 0 | 2.0 | 6.0 | 0.00 | 0.91 | 0.01 | 79 | 1013.1 |
| 20260504193049 | 89 | 0 | 0.0 | 8.0 | 0.00 | 0.91 | 0.01 | 80 | 1013.1 |
| 20260504192540 | 88 | 230 | 2.0 | 8.0 | 0.00 | 0.91 | 0.01 | 80 | 1013.2 |
| 20260504192042 | 89 | 261 | 5.0 | 8.0 | 0.00 | 0.91 | 0.01 | 79 | 1013.5 |
| 20260504191547 | 89 | 306 | 1.0 | 5.0 | 0.00 | 0.91 | 0.01 | 79 | 1013.5 |
| 20260504191038 | 89 | 327 | 0.0 | 5.0 | 0.00 | 0.91 | 0.01 | 79 | 1013.6 |
| 20260504190537 | 89 | 89 | 3.0 | 7.0 | 0.00 | 0.91 | 0.01 | 78 | 1013.6 |
| 20260504190050 | 89 | 145 | 3.0 | 7.0 | 0.00 | 0.91 | 0.01 | 79 | 1013.6 |
| 20260504185540 | 88 | 150 | 3.0 | 7.0 | 0.00 | 0.91 | 0.01 | 80 | 1013.7 |
| 20260504185040 | 88 | 182 | 3.0 | 8.0 | 0.00 | 0.91 | 0.01 | 80 | 1013.8 |
| 20260504184547 | 89 | 179 | 4.0 | 8.0 | 0.00 | 0.91 | 0.01 | 78 | 1013.8 |
| 20260504184040 | 88 | 136 | 3.0 | 8.0 | 0.00 | 0.91 | 0.01 | 80 | 1013.7 |
| 20260504183539 | 89 | 170 | 2.0 | 7.0 | 0.00 | 0.91 | 0.01 | 81 | 1013.8 |
| 20260504183050 | 88 | 101 | 3.0 | 7.0 | 0.00 | 0.91 | 0.01 | 81 | 1013.8 |
| 20260504182540 | 88 | 0 | 3.0 | 7.0 | 0.00 | 0.91 | 0.01 | 80 | 1014.1 |
| 20260504182040 | 89 | 51 | 2.0 | 8.0 | 0.00 | 0.91 | 0.01 | 80 | 1014.2 |
| 20260504181550 | 88 | 78 | 1.0 | 8.0 | 0.00 | 0.91 | 0.01 | 80 | 1014.2 |
| 20260504181041 | 88 | 79 | 2.0 | 7.0 | 0.00 | 0.91 | 0.01 | 80 | 1014.3 |
| 20260504180541 | 87 | 135 | 0.0 | 6.0 | 0.00 | 0.91 | 0.01 | 82 | 1014.3 |
| 20260504180050 | 87 | 138 | 2.0 | 8.0 | 0.00 | 0.91 | 0.01 | 82 | 1014.4 |
| 20260504175538 | 87 | 155 | 3.0 | 8.0 | 0.00 | 0.91 | 0.01 | 82 | 1014.4 |
| 20260504175041 | 86 | 237 | 3.0 | 9.0 | 0.00 | 0.91 | 0.01 | 83 | 1014.5 |
| 20260504174550 | 87 | 115 | 4.0 | 9.0 | 0.00 | 0.91 | 0.01 | 83 | 1014.5 |
| 20260504174041 | 86 | 148 | 3.0 | 9.0 | 0.00 | 0.91 | 0.01 | 84 | 1014.7 |
| 20260504173540 | 87 | 169 | 3.0 | 9.0 | 0.00 | 0.91 | 0.01 | 83 | 1014.6 |
| 20260504173049 | 86 | 170 | 2.0 | 5.0 | 0.00 | 0.91 | 0.01 | 83 | 1014.7 |
| 20260504172539 | 87 | 0 | 1.0 | 8.0 | 0.00 | 0.91 | 0.01 | 83 | 1014.9 |
| 20260504172040 | 86 | 0 | 3.0 | 8.0 | 0.00 | 0.91 | 0.01 | 82 | 1015.1 |
| 20260504171555 | 86 | 144 | 2.0 | 7.0 | 0.00 | 0.91 | 0.01 | 83 | 1015.2 |
| 20260504171040 | 86 | 190 | 2.0 | 7.0 | 0.00 | 0.91 | 0.01 | 83 | 1015.2 |
| 20260504170544 | 85 | 0 | 2.0 | 6.0 | 0.00 | 0.91 | 0.01 | 83 | 1015.2 |
| 20260504050541 | 77 | 236 | 4.0 | 10.0 | 0.00 | 0.90 | 0.90 | 97 | 1017.1 |
| 20260504045539 | 78 | 249 | 1.0 | 7.0 | 0.00 | 0.90 | 0.90 | 98 | 1017.2 |
| 20260504045041 | 78 | 254 | 2.0 | 7.0 | 0.00 | 0.90 | 0.90 | 98 | 1017.1 |
| 20260504044546 | 77 | 178 | 2.0 | 7.0 | 0.00 | 0.90 | 0.90 | 98 | 1017.2 |
| 20260504044037 | 78 | 215 | 3.0 | 8.0 | 0.00 | 0.90 | 0.90 | 98 | 1017.0 |
| 20260504043541 | 78 | 230 | 2.0 | 8.0 | 0.00 | 0.90 | 0.90 | 98 | 1017.1 |
| 20260504043052 | 78 | 271 | 4.0 | 8.0 | 0.00 | 0.90 | 0.90 | 98 | 1017.3 |
| 20260504042541 | 78 | 252 | 3.0 | 9.0 | 0.00 | 0.90 | 0.90 | 98 | 1017.2 |
| 20260504042041 | 78 | 257 | 3.0 | 9.0 | 0.00 | 0.90 | 0.90 | 98 | 1017.1 |
| 20260504041553 | 78 | 240 | 4.0 | 9.0 | 0.00 | 0.90 | 0.90 | 98 | 1017.0 |
| 20260504041040 | 78 | 234 | 4.0 | 9.0 | 0.00 | 0.90 | 0.90 | 98 | 1017.0 |
| 20260504040544 | 78 | 251 | 4.0 | 9.0 | 0.00 | 0.90 | 0.90 | 98 | 1017.0 |
| 20260504040111 | 78 | 240 | 3.0 | 9.0 | 0.00 | 0.90 | 0.90 | 98 | 1017.0 |
| 20260504035540 | 78 | 252 | 4.0 | 9.0 | 0.00 | 0.90 | 0.90 | 98 | 1017.1 |
| 20260504035041 | 78 | 250 | 2.0 | 6.0 | 0.00 | 0.90 | 0.90 | 98 | 1017.1 |
| 20260504034548 | 78 | 294 | 1.0 | 5.0 | 0.01 | 0.90 | 0.90 | 98 | 1017.2 |
| 20260504034041 | 78 | 0 | 2.0 | 9.0 | 0.01 | 0.90 | 0.90 | 98 | 1017.0 |
| 20260504033541 | 78 | 275 | 3.0 | 9.0 | 0.01 | 0.90 | 0.90 | 98 | 1016.9 |
| 20260504033046 | 78 | 300 | 4.0 | 8.0 | 0.01 | 0.90 | 0.90 | 98 | 1017.1 |
| 20260504032541 | 78 | 265 | 4.0 | 8.0 | 0.01 | 0.90 | 0.90 | 98 | 1017.0 |
| 20260504032041 | 78 | 258 | 2.0 | 6.0 | 0.01 | 0.90 | 0.90 | 98 | 1016.9 |
| 20260504031545 | 78 | 0 | 1.0 | 7.0 | 0.02 | 0.90 | 0.90 | 98 | 1016.9 |
| 20260504031040 | 78 | 259 | 3.0 | 7.0 | 0.02 | 0.90 | 0.90 | 98 | 1016.8 |
| 20260504030540 | 78 | 240 | 1.0 | 7.0 | 0.03 | 0.90 | 0.90 | 98 | 1016.8 |
| 20260504030045 | 78 | 217 | 1.0 | 8.0 | 0.03 | 0.90 | 0.90 | 97 | 1016.8 |
| 20260504025542 | 78 | 278 | 4.0 | 8.0 | 0.03 | 0.90 | 0.90 | 97 | 1016.6 |
| 20260504025045 | 78 | 238 | 2.0 | 6.0 | 0.03 | 0.90 | 0.90 | 97 | 1016.6 |
| 20260504024547 | 78 | 242 | 2.0 | 5.0 | 0.02 | 0.89 | 0.89 | 97 | 1016.6 |
| 20260504024040 | 78 | 196 | 1.0 | 8.0 | 0.02 | 0.89 | 0.89 | 97 | 1016.6 |
| 20260504023539 | 78 | 202 | 2.0 | 8.0 | 0.02 | 0.89 | 0.89 | 97 | 1016.6 |
| 20260504023059 | 79 | 302 | 3.0 | 8.0 | 0.02 | 0.89 | 0.89 | 97 | 1016.6 |
| 20260504022542 | 79 | 171 | 1.0 | 4.0 | 0.02 | 0.89 | 0.89 | 97 | 1016.5 |
| 20260504022040 | 79 | 0 | 0.0 | 8.0 | 0.02 | 0.89 | 0.89 | 97 | 1016.5 |
| 20260504021550 | 79 | 317 | 2.0 | 8.0 | 0.01 | 0.88 | 0.88 | 97 | 1016.4 |
| 20260504021040 | 79 | 223 | 4.0 | 10.0 | 0.01 | 0.88 | 0.88 | 97 | 1016.3 |
| 20260504020540 | 79 | 259 | 5.0 | 13.0 | 0.00 | 0.87 | 0.87 | 97 | 1016.3 |
| 20260504020048 | 79 | 284 | 7.0 | 13.0 | 0.00 | 0.87 | 0.87 | 97 | 1016.1 |
| 20260504015540 | 79 | 294 | 7.0 | 13.0 | 0.00 | 0.87 | 0.87 | 97 | 1016.1 |
| 20260504015042 | 79 | 246 | 5.0 | 11.0 | 0.00 | 0.87 | 0.87 | 97 | 1016.1 |
| 20260504014600 | 79 | 306 | 6.0 | 10.0 | 0.00 | 0.87 | 0.87 | 97 | 1015.9 |
| 20260504014040 | 79 | 251 | 4.0 | 9.0 | 0.00 | 0.87 | 0.87 | 97 | 1016.0 |
| 20260504013540 | 79 | 279 | 2.0 | 9.0 | 0.00 | 0.87 | 0.87 | 97 | 1016.0 |
| 20260504013049 | 79 | 295 | 5.0 | 9.0 | 0.00 | 0.87 | 0.87 | 97 | 1015.9 |
| 20260504012541 | 79 | 231 | 4.0 | 9.0 | 0.00 | 0.87 | 0.87 | 97 | 1015.9 |
| 20260504012040 | 79 | 273 | 6.0 | 9.0 | 0.00 | 0.87 | 0.87 | 97 | 1015.9 |
| 20260504011552 | 79 | 274 | 3.0 | 9.0 | 0.00 | 0.87 | 0.87 | 97 | 1015.8 |
| 20260504011041 | 79 | 290 | 4.0 | 9.0 | 0.00 | 0.87 | 0.87 | 97 | 1015.8 |
| 20260504010540 | 79 | 242 | 5.0 | 9.0 | 0.00 | 0.87 | 0.87 | 97 | 1015.9 |
| 20260504010054 | 80 | 237 | 4.0 | 8.0 | 0.00 | 0.87 | 0.87 | 97 | 1015.8 |
| 20260504005542 | 80 | 253 | 2.0 | 8.0 | 0.00 | 0.87 | 0.87 | 96 | 1015.7 |
| 20260504005040 | 80 | 123 | 3.0 | 8.0 | 0.00 | 0.87 | 0.87 | 97 | 1015.8 |
| 20260504004552 | 80 | 172 | 3.0 | 10.0 | 0.00 | 0.87 | 0.87 | 96 | 1015.6 |
| 20260504004038 | 80 | 190 | 4.0 | 10.0 | 0.00 | 0.87 | 0.87 | 96 | 1015.5 |
| 20260504003538 | 80 | 257 | 2.0 | 8.0 | 0.00 | 0.87 | 0.87 | 96 | 1015.5 |
| 20260504003102 | 80 | 200 | 3.0 | 8.0 | 0.00 | 0.87 | 0.87 | 96 | 1015.3 |
| 20260504002540 | 80 | 250 | 3.0 | 8.0 | 0.00 | 0.87 | 0.87 | 96 | 1015.2 |
| 20260504002039 | 80 | 238 | 2.0 | 10.0 | 0.00 | 0.87 | 0.87 | 96 | 1015.1 |
| 20260504001604 | 80 | 244 | 5.0 | 10.0 | 0.00 | 0.87 | 0.87 | 96 | 1015.1 |
| 20260504001038 | 80 | 254 | 5.0 | 10.0 | 0.00 | 0.87 | 0.87 | 96 | 1014.9 |
| 20260504000538 | 80 | 263 | 4.0 | 10.0 | 0.00 | 0.87 | 0.87 | 96 | 1014.7 |
| 20260504000108 | 80 | 263 | 5.0 | 10.0 | 0.00 | 0.87 | 0.87 | 96 | 1014.7 |
| 20260503235538 | 80 | 257 | 7.0 | 10.0 | 0.00 | 0.87 | 0.87 | 95 | 1014.7 |
| 20260503235040 | 80 | 250 | 4.0 | 8.0 | 0.00 | 0.87 | 0.87 | 95 | 1014.7 |
| 20260503234552 | 80 | 203 | 3.0 | 8.0 | 0.00 | 0.87 | 0.87 | 95 | 1014.7 |
| 20260503234039 | 80 | 199 | 3.0 | 7.0 | 0.00 | 0.87 | 0.87 | 95 | 1014.7 |
| 20260503233540 | 80 | 182 | 3.0 | 7.0 | 0.00 | 0.87 | 0.87 | 95 | 1014.7 |
| 20260503233048 | 80 | 130 | 2.0 | 8.0 | 0.00 | 0.87 | 0.87 | 94 | 1014.5 |
| 20260503232537 | 80 | 183 | 3.0 | 8.0 | 0.00 | 0.87 | 0.87 | 94 | 1014.4 |
| 20260503232040 | 80 | 205 | 5.0 | 8.0 | 0.00 | 0.87 | 0.87 | 94 | 1014.2 |
| 20260503231550 | 80 | 227 | 4.0 | 10.0 | 0.00 | 0.87 | 0.87 | 94 | 1014.2 |
| 20260503231038 | 80 | 240 | 5.0 | 12.0 | 0.00 | 0.87 | 0.87 | 93 | 1014.2 |
| 20260503230537 | 81 | 230 | 5.0 | 12.0 | 0.00 | 0.87 | 0.87 | 93 | 1014.2 |
| 20260503230050 | 81 | 249 | 4.0 | 10.0 | 0.00 | 0.87 | 0.87 | 93 | 1014.2 |
| 20260503225538 | 81 | 200 | 1.0 | 5.0 | 0.00 | 0.87 | 0.87 | 94 | 1014.2 |
| 20260503225040 | 80 | 235 | 2.0 | 5.0 | 0.00 | 0.87 | 0.87 | 94 | 1014.2 |
| 20260503224549 | 80 | 246 | 1.0 | 7.0 | 0.01 | 0.87 | 0.87 | 95 | 1014.3 |
| 20260503224040 | 80 | 254 | 3.0 | 7.0 | 0.01 | 0.87 | 0.87 | 95 | 1014.3 |
| 20260503223541 | 80 | 166 | 2.0 | 5.0 | 0.08 | 0.87 | 0.87 | 96 | 1014.4 |